sat.trackr.live / text

‹ back to catalog

IRIS-F3

NORAD 62619 · 2025-009L

PAYLOAD ACTIVE UNKNOWN

§ Identity

Operator
Country
ROC
Launch date
2025-01-14
Launch site
AFWTR
Launch vehicle
Mass (kg)
RCS (m²)

External: N2YO · Heavens-Above · Gunter

§ Orbital elements

Epoch: 2026-05-25T04:24:40.091904Z

Period
94.32 min
Inclination
97.4046°
Eccentricity
0.0007675
Mean motion
15.26704684 rev/d
Perigee alt
480.4 km
Apogee alt
490.9 km
Semi-major
6,863.8 km
B*
2.0773e-4
RAAN
226.2086°
Arg perigee
55.0949°
Mean anomaly
305.1010°
Rev number
7,531

§ Raw data

IRIS-F31 62619U 25009L   26145.18379736  .00005386  00000+0  20773-3 0  99952 62619  97.4046 226.2086 0007675  55.0949 305.1010 15.26704684 75318

JSON: /api/v1/satellites/62619 · /tle

For live sub-satellite position, see the globe view (requires WebGL).

§ Visibility from observer

Set your observer location to see the next 7 days of passes ≥ 10°. The values pass through the URL so the page stays shareable.

No JS? Fill the form by hand. The geolocation button needs JavaScript.

§ Radio — SatNOGS DB

ModeDescriptionDownlinkUplink
FM Mode S - Transmitter 2.280 GHz
BPSK Mode U - BPSK4k8 400.920 MHz

2 transmitters · refreshed weekly from db.satnogs.org